Tracking 29594 objects as of 20-Sep-2024
HD Live streaming from Space Station
objects crossing your sky now

STARLINK-31386

Track STARLINK-31386 now!
10-day predictions
STARLINK-31386 is classified as:


NORAD ID: 59298
Int'l Code: 2024-056C
Perigee: 449.8 km
Apogee: 452.5 km
Inclination: 43.0 °
Period: 93.5 minutes
Semi major axis: 6822 km
RCS: Unknown
Launch date: March 24, 2024
Source: United States (US)
Launch site: AIR FORCE EASTERN TEST RANGE (AFETR)
Your satellite tracking list
Your tracking list is empty




NASA's NSSDC Master Catalog

Two Line Element Set (TLE):
1 59298U 24056C   24264.40046853  .00003137  00000-0  82289-4 0  9995
2 59298  43.0089  38.4214 0001975 277.2137  82.8495 15.40718298 29004
Source of the keplerian elements: AFSPC